GEOSCAN 4 (RS92S4)

Last updated on Fri Dec 19 2025 00:03:12 GMT+0000 (Coordinated Universal Time)

1 64892U 25155S 25352.61624979 .00011966 00000+0 45014-3 0 9997 2 64892 97.4342 316.5239 0009222 99.4831 260.7451 15.27248453 53204
UTC large
Height (km)
Speed (km/s)
/
Latitude / Longitude
Inclination (degrees)
Orbital Period (minutes)
Azimuth
Elevation
Range (km)
Doppler Factor

Next 0 passes for location: London (51.5072 / 0.1276)

Sorry there are no passes over London.